FW7441 Weather Reports


Display with metric or nautical units.
time (UTC)temp
F
wind
direction
speed
MPH
gust
MPH
rain 1hr
in
rain 24hr
in
rain mn
in
humidity
%
barometer
mb
20260901234402 88 205 1.0 1.0 0.00 0.00 0.00 79 1013.7
20260901233857 88 161 1.0 1.0 0.00 0.00 0.00 79 1013.7
20260901233352 88 229 1.0 2.0 0.00 0.00 0.00 79 1013.6
20260901232849 89 199 0.0 1.0 0.00 0.00 0.00 79 1013.6
20260901232343 89 246 1.0 1.0 0.00 0.00 0.00 79 1013.8
20260901231839 89 191 1.0 1.0 0.00 0.00 0.00 78 1013.6
20260901231335 89 240 0.0 1.0 0.00 0.00 0.00 78 1013.6
20260901230831 90 196 0.0 0.0 0.00 0.00 0.00 77 1013.7
20260901230330 90 194 0.0 1.0 0.00 0.00 0.00 77 1013.8
20260901225826 90 181 1.0 1.0 0.00 0.00 0.00 76 1013.8
20260901225325 90 252 2.0 2.0 0.00 0.00 0.00 75 1013.7
20260901224820 91 224 1.0 2.0 0.00 0.00 0.00 75 1013.8
20260901224317 91 225 1.0 1.0 0.00 0.00 0.00 74 1013.8
20260901223813 92 190 0.0 1.0 0.00 0.00 0.00 73 1013.8
20260901223308 91 209 1.0 1.0 0.00 0.00 0.00 73 1013.8
20260901222804 91 214 1.0 1.0 0.00 0.00 0.00 73 1014.0
20260901222300 90 232 1.0 2.0 0.00 0.00 0.00 75 1013.9
20260901221756 91 238 1.0 2.0 0.00 0.00 0.00 75 1014.0
20260901221251 92 202 0.0 1.0 0.00 0.00 0.00 73 1014.0
20260901220750 92 234 1.0 1.0 0.00 0.00 0.00 74 1013.9
20260901220250 93 239 3.0 3.0 0.00 0.00 0.00 71 1013.9
20260901215749 93 238 0.0 1.0 0.00 0.00 0.00 71 1013.7
20260901215248 92 182 3.0 3.0 0.00 0.00 0.00 72 1013.7
20260901214747 91 219 2.0 2.0 0.00 0.00 0.00 74 1013.5
20260901214245 92 188 1.0 2.0 0.00 0.00 0.00 75 1013.5
20260901213741 92 209 0.0 0.0 0.00 0.00 0.00 74 1013.8
20260901213240 92 170 0.0 0.0 0.00 0.00 0.00 72 1013.7
20260901212740 94 228 2.0 3.0 0.00 0.00 0.00 70 1013.8
20260901212237 94 236 0.0 1.0 0.00 0.00 0.00 70 1014.0
20260901211737 95 248 2.0 2.0 0.00 0.00 0.00 68 1013.8
20260901211233 95 223 2.0 2.0 0.00 0.00 0.00 65 1013.6
20260901210730 95 254 1.0 1.0 0.00 0.00 0.00 66 1013.8
20260901210225 95 223 1.0 1.0 0.00 0.00 0.00 66 1014.1
20260901205721 95 237 0.0 0.0 0.00 0.00 0.00 67 1013.8
20260901205220 95 208 2.0 3.0 0.00 0.00 0.00 67 1013.7
20260901204716 95 299 1.0 1.0 0.00 0.00 0.00 67 1014.0
20260901204212 95 184 0.0 0.0 0.00 0.00 0.00 68 1013.9
20260901203707 95 259 1.0 2.0 0.00 0.00 0.00 65 1014.0
20260901203202 95 219 1.0 1.0 0.00 0.00 0.00 64 1014.2
20260901202701 95 233 0.0 1.0 0.00 0.00 0.00 65 1014.1
20260901202157 95 267 1.0 1.0 0.00 0.00 0.00 64 1014.0
20260901201652 95 254 0.0 1.0 0.00 0.00 0.00 64 1014.3
20260901201152 94 211 2.0 2.0 0.00 0.00 0.00 65 1014.1
20260901200651 94 215 3.0 3.0 0.00 0.00 0.00 65 1014.2
20260901200146 94 191 1.0 1.0 0.00 0.00 0.00 66 1014.3
20260901195644 95 183 3.0 5.0 0.00 0.00 0.00 64 1014.3
20260901195144 95 216 3.0 5.0 0.00 0.00 0.00 64 1014.3
20260901194640 95 122 1.0 1.0 0.00 0.00 0.00 64 1014.2
20260901194134 94 243 3.0 3.0 0.00 0.00 0.00 68 1014.5
20260901193625 95 220 0.0 1.0 0.00 0.00 0.00 67 1014.2
20260901193124 94 204 0.0 1.0 0.00 0.00 0.00 66 1014.2
20260901192619 94 243 1.0 1.0 0.00 0.00 0.00 66 1014.4
20260901192115 94 193 2.0 2.0 0.00 0.00 0.00 67 1014.6
20260901191611 94 217 1.0 1.0 0.00 0.00 0.00 69 1014.4
20260901191107 94 173 0.0 1.0 0.00 0.00 0.00 69 1014.3
20260901190602 93 191 2.0 2.0 0.00 0.00 0.00 68 1014.3
20260901190101 93 232 3.0 5.0 0.00 0.00 0.00 68 1014.3
20260901185600 92 225 1.0 2.0 0.00 0.00 0.00 72 1014.6
20260901185059 93 273 2.0 3.0 0.00 0.00 0.00 69 1014.5
20260901184554 93 246 1.0 2.0 0.00 0.00 0.00 72 1014.5
20260901184050 93 193 1.0 2.0 0.00 0.00 0.00 68 1014.6
20260901183550 93 208 2.0 2.0 0.00 0.00 0.00 71 1014.4
20260901183045 92 226 1.0 2.0 0.00 0.00 0.00 69 1014.5
20260901182542 91 17 1.0 2.0 0.00 0.00 0.00 72 1014.8
20260901182041 91 242 2.0 3.0 0.00 0.00 0.00 72 1014.9
20260901181541 91 233 2.0 2.0 0.00 0.00 0.00 74 1014.6
20260901181035 90 293 0.0 1.0 0.00 0.00 0.00 74 1014.6
20260901180533 90 216 0.0 1.0 0.00 0.00 0.00 76 1014.8
20260901180028 91 240 2.0 2.0 0.00 0.00 0.00 75 1014.5
20260901175517 91 37 0.0 1.0 0.00 0.00 0.00 79 1014.9
20260901175016 90 230 1.0 1.0 0.00 0.00 0.00 79 1015.0
20260901174513 90 244 1.0 2.0 0.00 0.00 0.00 78 1014.9
20260901174009 89 164 1.0 1.0 0.00 0.00 0.00 80 1014.6
20260901173503 89 145 3.0 3.0 0.00 0.00 0.00 81 1014.9
20260901172959 89 320 2.0 2.0 0.00 0.00 0.00 82 1015.1
20260901172454 88 180 0.0 1.0 0.00 0.00 0.00 81 1014.9
20260901171952 88 181 2.0 2.0 0.00 0.00 0.00 81 1015.1
20260901171451 88 160 1.0 1.0 0.00 0.00 0.00 83 1014.9
20260901170950 88 214 1.0 2.0 0.00 0.00 0.00 83 1015.2
20260901170445 87 190 0.0 1.0 0.00 0.00 0.00 84 1015.3
20260901165944 87 285 2.0 3.0 0.00 0.00 0.00 85 1015.3
20260901165439 85 212 0.0 1.0 0.00 0.00 0.00 86 1015.3
20260901164935 85 213 1.0 1.0 0.00 0.00 0.00 86 1015.2
20260901164430 85 211 2.0 2.0 0.00 0.00 0.00 86 1015.6
20260901163925 84 218 0.0 1.0 0.00 0.00 0.00 89 1015.5
20260901163420 85 177 0.0 0.0 0.00 0.00 0.00 88 1015.4
20260901162919 86 232 1.0 1.0 0.00 0.00 0.00 86 1015.7
20260901162414 86 236 1.0 1.0 0.00 0.00 0.00 85 1015.7
20260901161908 86 291 0.0 1.0 0.00 0.00 0.00 86 1015.6
20260901161407 85 101 0.0 0.0 0.00 0.00 0.00 88 1015.4
20260901160902 84 234 2.0 2.0 0.00 0.00 0.00 87 1015.6
20260901160359 85 198 2.0 2.0 0.00 0.00 0.00 86 1015.6
20260901155858 84 216 1.0 2.0 0.00 0.00 0.00 87 1015.2
20260901155352 83 206 0.0 1.0 0.00 0.00 0.00 90 1015.6
20260901154849 83 203 1.0 1.0 0.00 0.00 0.00 89 1015.5
20260901154348 83 203 1.0 2.0 0.00 0.00 0.00 90 1015.3
20260901153843 82 196 0.0 0.0 0.00 0.00 0.00 90 1015.4
20260901153338 82 195 0.0 1.0 0.00 0.00 0.00 90 1015.2
20260901152836 82 241 1.0 1.0 0.00 0.00 0.00 90 1015.3
20260901152337 82 196 0.0 0.0 0.00 0.00 0.00 90 1015.2
20260901151832 82 240 1.0 1.0 0.00 0.00 0.00 90 1015.2
20260901151326 82 214 0.0 1.0 0.00 0.00 0.00 91 1015.2
20260901150826 82 238 1.0 1.0 0.00 0.00 0.00 90 1015.0
20260901150324 82 242 1.0 1.0 0.00 0.00 0.00 90 1015.2
20260901145821 82 199 0.0 0.0 0.00 0.00 0.00 90 1015.2
20260901145316 82 216 1.0 2.0 0.00 0.00 0.00 89 1015.0
20260901144811 82 229 0.0 1.0 0.00 0.00 0.00 89 1015.2
20260901144307 83 222 1.0 1.0 0.00 0.00 0.00 88 1014.9
20260901143802 83 230 0.0 0.0 0.00 0.00 0.00 88 1015.1
20260901143258 83 207 0.0 1.0 0.00 0.00 0.00 88 1014.9
20260901142754 83 207 1.0 2.0 0.00 0.00 0.00 88 1015.1
20260901142253 82 252 0.0 1.0 0.00 0.00 0.00 89 1015.1
20260901141749 83 90 1.0 1.0 0.00 0.00 0.00 88 1015.1
20260901141249 84 266 3.0 3.0 0.00 0.00 0.00 86 1015.0
20260901140748 83 177 0.0 0.0 0.00 0.00 0.00 88 1015.2
20260901140246 82 206 1.0 2.0 0.00 0.00 0.00 88 1015.2
20260901135741 83 256 2.0 2.0 0.00 0.00 0.00 87 1015.0
20260901135236 83 179 0.0 1.0 0.00 0.00 0.00 88 1015.0
20260901134732 82 197 1.0 1.0 0.00 0.00 0.00 89 1015.1
20260901134231 81 206 1.0 2.0 0.00 0.00 0.00 89 1014.9
20260901133731 81 230 3.0 3.0 0.00 0.00 0.00 89 1015.1
20260901133230 81 94 1.0 2.0 0.00 0.00 0.00 91 1015.0
20260901132729 80 187 0.0 1.0 0.00 0.00 0.00 91 1014.7
20260901132224 80 173 0.0 0.0 0.00 0.00 0.00 92 1014.9
20260901131719 79 225 1.0 1.0 0.00 0.00 0.00 92 1015.0
20260901131219 79 208 0.0 0.0 0.00 0.00 0.00 94 1015.1
20260901130714 78 210 1.0 1.0 0.00 0.00 0.00 95 1015.1
20260901130213 77 196 0.0 0.0 0.00 0.00 0.00 96 1015.1
20260901125711 77 188 1.0 1.0 0.00 0.00 0.00 97 1015.2
20260901125206 76 77 0.0 0.0 0.00 0.00 0.00 98 1015.1
20260901124701 76 272 1.0 1.0 0.00 0.00 0.00 98 1015.1
20260901124201 75 262 0.0 1.0 0.00 0.00 0.00 98 1014.9
20260901123655 75 230 1.0 1.0 0.00 0.00 0.00 98 1015.0
20260901123155 75 230 0.0 0.0 0.00 0.00 0.00 99 1014.8
20260901122654 75 230 2.0 3.0 0.00 0.00 0.00 99 1014.9
20260901122148 75 205 0.0 1.0 0.00 0.00 0.00 99 1014.8
20260901121643 75 195 0.0 0.0 0.00 0.00 0.00 99 1014.8
20260901121139 74 210 0.0 0.0 0.00 0.00 0.00 99 1014.8
20260901120638 74 210 0.0 0.0 0.00 0.00 0.00 99 1014.9
20260901120133 74 210 0.0 0.0 0.00 0.00 0.00 99 1014.8
20260901115629 74 212 0.0 0.0 0.00 0.00 0.00 99 1014.5
20260901115125 73 203 0.0 0.0 0.00 0.00 0.00 99 1014.5
20260901114622 73 201 0.0 0.0 0.00 0.00 0.00 99 1014.7
20260901114120 73 201 0.0 0.0 0.00 0.00 0.00 99 1014.5
20260901113619 73 202 0.0 0.0 0.00 0.00 0.00 99 1014.3
20260901113114 73 202 0.0 0.0 0.00 0.00 0.00 99 1014.3
20260901112609 73 210 0.0 0.0 0.00 0.00 0.00 99 1014.6
20260901112104 73 213 0.0 0.0 0.00 0.00 0.00 99 1014.4
20260901111603 73 217 0.0 0.0 0.00 0.00 0.00 99 1014.6
20260901111102 73 206 0.0 0.0 0.00 0.00 0.00 99 1014.3
20260901110557 73 215 0.0 0.0 0.00 0.00 0.00 99 1014.2
20260901110052 73 207 0.0 0.0 0.00 0.00 0.00 99 1014.1
20260901105549 73 215 0.0 0.0 0.00 0.00 0.00 99 1014.1
20260901105047 73 210 0.0 0.0 0.00 0.00 0.00 99 1014.1
20260901104544 73 199 0.0 0.0 0.00 0.00 0.00 99 1014.0
20260901104040 73 199 0.0 0.0 0.00 0.00 0.00 99 1013.8
20260901103534 73 213 0.0 0.0 0.00 0.00 0.00 99 1014.1
20260901103030 73 186 0.0 0.0 0.00 0.00 0.00 99 1014.1
20260901102529 73 220 0.0 0.0 0.00 0.00 0.00 99 1014.0
20260901102024 73 224 0.0 0.0 0.00 0.00 0.00 99 1013.8
20260901101520 74 228 0.0 0.0 0.00 0.00 0.00 99 1013.8
20260901101019 74 275 0.0 0.0 0.00 0.00 0.00 99 1014.0
20260901100514 73 216 0.0 0.0 0.00 0.00 0.00 99 1013.7
20260901100014 73 207 0.0 0.0 0.00 0.00 0.00 99 1013.8
20260901095512 74 351 1.0 1.0 0.00 0.00 0.00 99 1014.1
20260901095010 73 246 1.0 2.0 0.00 0.00 0.00 99 1013.8
20260901094505 73 275 0.0 0.0 0.00 0.00 0.00 99 1014.2
20260901094004 74 205 0.0 0.0 0.00 0.00 0.00 99 1013.9
20260901093504 73 208 0.0 0.0 0.00 0.00 0.00 99 1014.1
20260901092959 73 341 0.0 1.0 0.00 0.00 0.00 99 1014.1
20260901092455 74 266 0.0 0.0 0.00 0.00 0.00 99 1014.0
20260901091951 74 252 0.0 0.0 0.00 0.00 0.00 99 1013.6
20260901091446 73 234 0.0 0.0 0.00 0.00 0.00 99 1013.8
20260901090941 73 201 0.0 0.0 0.00 0.00 0.00 99 1013.9
20260901090440 74 205 0.0 0.0 0.00 0.00 0.00 99 1013.8
20260901085936 74 166 0.0 0.0 0.00 0.00 0.00 99 1013.8
20260901085432 74 223 0.0 0.0 0.00 0.00 0.00 99 1013.6
20260901084928 74 194 0.0 0.0 0.00 0.00 0.00 99 1013.8
20260901084424 74 200 0.0 1.0 0.00 0.00 0.00 99 1013.9
20260901083919 73 209 0.0 0.0 0.00 0.00 0.00 99 1013.9
20260901083414 73 209 0.0 0.0 0.00 0.00 0.00 99 1013.8
20260901082912 73 210 0.0 0.0 0.00 0.00 0.00 99 1013.7
20260901082407 74 218 0.0 0.0 0.00 0.00 0.00 99 1013.6
20260901081902 74 244 0.0 0.0 0.00 0.00 0.00 99 1013.7
20260901081357 74 233 0.0 0.0 0.00 0.00 0.00 99 1013.5
20260901080851 73 222 0.0 0.0 0.00 0.00 0.00 99 1013.7
20260901080346 74 222 0.0 0.0 0.00 0.00 0.00 99 1013.3
20260901075846 74 222 0.0 0.0 0.00 0.00 0.00 99 1013.9
20260901075341 74 222 0.0 0.0 0.00 0.00 0.00 99 1013.7
20260901074836 74 223 0.0 0.0 0.00 0.00 0.00 99 1013.7
20260901074330 74 202 0.0 0.0 0.00 0.00 0.00 99 1013.6
20260901073826 74 202 0.0 0.0 0.00 0.00 0.00 99 1013.6
20260901073321 74 243 0.0 0.0 0.00 0.00 0.00 99 1013.7
20260901072817 74 243 0.0 0.0 0.00 0.00 0.00 98 1013.8
20260901072311 74 244 0.0 0.0 0.00 0.00 0.00 98 1013.7
20260901071807 75 244 0.0 0.0 0.00 0.00 0.00 98 1013.8
20260901071305 75 243 0.0 0.0 0.00 0.00 0.00 98 1013.7
20260901070804 75 256 0.0 0.0 0.00 0.00 0.00 98 1013.7
20260901070300 75 236 0.0 0.0 0.00 0.00 0.00 98 1013.7
20260901065759 75 232 0.0 0.0 0.00 0.00 0.00 98 1013.7
20260901065254 75 207 0.0 0.0 0.00 0.00 0.00 98 1013.5
20260901064750 75 219 0.0 0.0 0.00 0.00 0.00 98 1013.7
20260901064246 75 201 0.0 0.0 0.00 0.00 0.00 98 1013.8
20260901063743 75 183 0.0 0.0 0.00 0.00 0.00 98 1013.7
20260901063239 75 231 0.0 0.0 0.00 0.00 0.00 98 1013.7
20260901062735 75 193 0.0 0.0 0.00 0.00 0.00 98 1013.8
20260901062231 75 232 0.0 0.0 0.00 0.00 0.00 98 1013.8
20260901061727 75 197 0.0 0.0 0.00 0.00 0.00 98 1013.8
20260901061226 75 286 0.0 1.0 0.00 0.00 0.00 98 1013.9
20260901060721 75 258 0.0 0.0 0.00 0.00 0.00 98 1013.7
20260901060217 75 227 0.0 0.0 0.00 0.00 0.00 98 1013.7
20260901055712 75 227 0.0 0.0 0.00 0.00 0.00 98 1013.9
20260901055209 75 227 0.0 0.0 0.00 0.00 0.00 98 1013.7
20260901054706 75 233 0.0 0.0 0.00 0.00 0.00 98 1013.9
20260901054202 75 233 0.0 0.0 0.00 0.00 0.00 97 1013.7
20260901053657 75 233 0.0 0.0 0.00 0.00 0.00 97 1013.8
20260901053153 75 235 0.0 0.0 0.00 0.00 0.00 97 1013.7
20260901052648 75 235 0.0 0.0 0.00 0.00 0.00 97 1013.8
20260901052143 75 238 0.0 0.0 0.00 0.00 0.00 97 1013.6
20260901051642 75 219 0.0 0.0 0.00 0.00 0.00 97 1013.7
20260901051142 75 232 0.0 0.0 0.00 0.00 0.00 97 1013.8
20260901050637 75 245 0.0 0.0 0.00 0.00 0.00 96 1013.8
20260901050132 76 243 0.0 0.0 0.00 0.00 0.00 96 1013.7
20260901045627 76 216 0.0 0.0 0.00 0.65 0.65 96 1014.1
20260901045122 76 216 0.0 0.0 0.00 0.65 0.65 96 1014.0
20260901044618 76 216 0.0 0.0 0.00 0.65 0.65 96 1013.9
20260901044114 76 213 0.0 0.0 0.00 0.65 0.65 96 1014.1
20260901043609 76 259 0.0 1.0 0.00 0.65 0.65 96 1013.9
20260901043104 76 213 0.0 0.0 0.00 0.65 0.65 96 1013.9
20260901042603 76 209 0.0 0.0 0.00 0.65 0.65 96 1013.9
20260901042059 76 209 0.0 0.0 0.00 0.65 0.65 95 1013.9
20260901041554 76 245 0.0 0.0 0.00 0.65 0.65 95 1013.9
20260901041054 76 188 0.0 0.0 0.00 0.65 0.65 95 1014.0
20260901040553 76 229 0.0 0.0 0.00 0.65 0.65 95 1013.9
20260901040048 76 233 1.0 2.0 0.00 0.65 0.65 95 1014.0
20260901035546 76 209 0.0 0.0 0.00 0.65 0.65 95 1014.0
20260901035045 76 241 0.0 0.0 0.00 0.65 0.65 95 1013.9
20260901034545 76 237 0.0 0.0 0.00 0.65 0.65 95 1014.1
20260901034045 76 242 1.0 2.0 0.00 0.65 0.65 95 1014.0
20260901033544 76 223 0.0 0.0 0.00 0.65 0.65 95 1014.1
20260901033039 77 231 0.0 0.0 0.00 0.65 0.65 95 1014.2
20260901032538 77 237 0.0 0.0 0.00 0.65 0.65 95 1014.1
20260901032033 77 225 0.0 0.0 0.00 0.65 0.65 95 1014.0
20260901031528 77 223 0.0 0.0 0.00 0.65 0.65 95 1014.1
20260901031024 77 208 0.0 0.0 0.00 0.65 0.65 95 1014.2
20260901030524 77 270 0.0 0.0 0.00 0.65 0.65 95 1014.0
20260901030019 77 271 0.0 0.0 0.00 0.65 0.65 94 1014.3
20260901025513 77 270 0.0 0.0 0.00 0.65 0.65 94 1014.2
20260901025013 77 286 1.0 1.0 0.00 0.65 0.65 94 1014.2
20260901024508 78 204 0.0 0.0 0.00 0.65 0.65 94 1014.2
20260901024006 78 207 0.0 0.0 0.00 0.65 0.65 93 1014.3
20260901023501 78 211 0.0 0.0 0.00 0.65 0.65 93 1014.1
20260901022955 78 210 0.0 0.0 0.00 0.65 0.65 93 1014.0
20260901022451 78 209 0.0 0.0 0.00 0.65 0.65 93 1014.1
20260901021946 78 206 0.0 0.0 0.00 0.65 0.65 92 1014.2
20260901021442 79 201 0.0 0.0 0.00 0.65 0.65 92 1014.1
20260901020937 79 237 2.0 2.0 0.00 0.65 0.65 91 1014.0
20260901020432 79 218 0.0 0.0 0.00 0.65 0.65 92 1014.1
20260901015931 79 198 2.0 2.0 0.00 0.65 0.65 92 1013.8
20260901015428 78 195 1.0 2.0 0.00 0.65 0.65 92 1013.6
20260901014926 78 199 0.0 1.0 0.00 0.65 0.65 92 1013.9
20260901014423 78 202 0.0 1.0 0.00 0.65 0.65 92 1014.1
20260901013919 79 219 0.0 0.0 0.00 0.65 0.65 92 1014.0
20260901013414 79 190 0.0 0.0 0.00 0.65 0.65 92 1014.0
20260901012910 79 192 0.0 0.0 0.00 0.65 0.65 92 1014.0
20260901012404 79 187 0.0 0.0 0.00 0.65 0.65 92 1014.0
20260901011900 79 197 0.0 0.0 0.00 0.65 0.65 92 1013.8
20260901011356 79 202 0.0 0.0 0.00 0.65 0.65 91 1013.8
20260901010854 79 200 0.0 1.0 0.00 0.65 0.65 91 1013.6
20260901010349 79 210 0.0 0.0 0.00 0.65 0.65 91 1013.7
20260901005847 79 242 0.0 1.0 0.00 0.65 0.65 91 1013.8
20260901005343 80 218 0.0 0.0 0.00 0.65 0.65 91 1013.7
20260901004839 80 193 0.0 1.0 0.00 0.65 0.65 90 1013.7
20260901004338 80 169 1.0 1.0 0.00 0.65 0.65 91 1013.6
20260901003832 80 238 1.0 1.0 0.00 0.65 0.65 91 1013.4
20260901003328 79 150 2.0 2.0 0.00 0.65 0.65 92 1013.4
20260901002826 79 183 0.0 1.0 0.00 0.65 0.65 92 1013.4
20260901002326 80 193 1.0 1.0 0.00 0.65 0.65 92 1013.3
20260901001826 80 183 1.0 2.0 0.00 0.65 0.65 92 1013.5
20260901001322 80 187 0.0 0.0 0.00 0.65 0.65 91 1013.5
20260901000817 80 190 0.0 0.0 0.00 0.65 0.65 92 1013.1
20260901000314 80 218 0.0 0.0 0.00 0.65 0.65 91 1013.4
20260831235810 80 231 1.0 1.0 0.00 0.65 0.65 91 1013.1
20260831235306 80 200 0.0 0.0 0.00 0.65 0.65 91 1013.4
20260831234801 80 200 0.0 0.0 0.00 0.65 0.65 91 1013.2